EW1970 Weather Reports


time (UTC)temp
C
wind
direction
speed
KPH
gust
KPH
rain 1hr
cm
rain 24hr
cm
rain mn
cm
humidity
%
barometer
mb
20260505151506 22 212 3.2 11.3 0.00 0.00 0.00 87 1009.4
20260505124515 21 202 1.6 8.0 0.00 0.00 0.00 88 1008.2
20260505123019 21 128 1.6 11.3 0.00 0.00 0.00 88 1007.9
20260505121526 21 169 1.6 8.0 0.00 0.00 0.00 88 1007.7
20260505120033 21 223 1.6 11.3 0.00 0.00 0.00 88 1007.5
20260505114515 21 131 1.6 12.9 0.00 0.00 0.00 88 1007.5
20260505113020 21 122 1.6 12.9 0.00 0.00 0.00 87 1007.7
20260505111521 21 297 3.2 14.5 0.00 0.00 0.00 87 1007.5
20260505101524 21 175 3.2 14.5 0.00 0.00 0.00 86 1008.1
20260505100027 21 325 0.0 6.4 0.00 0.00 0.00 86 1008.1
20260505094524 21 254 0.0 8.0 0.00 0.00 0.00 86 1007.9
20260505093014 21 28 3.2 12.9 0.00 0.00 0.00 86 1008.1
20260505091513 21 136 1.6 6.4 0.00 0.00 0.00 86 1008.1
20260505090012 21 95 3.2 12.9 0.00 0.00 0.00 87 1008.2
20260505084507 21 203 1.6 12.9 0.00 0.00 0.00 86 1008.2
20260505083014 21 202 3.2 11.3 0.00 0.00 0.00 86 1008.4
20260505081518 21 194 1.6 11.3 0.00 0.00 0.00 86 1008.6
20260505080003 21 262 1.6 17.7 0.00 0.00 0.00 85 1008.6
20260505074505 21 332 4.8 16.1 0.00 0.00 0.00 85 1008.9
20260505073024 21 105 1.6 12.9 0.00 0.00 0.00 85 1008.9
20260505071519 21 294 3.2 17.7 0.00 0.00 0.00 85 1009.1
20260505070022 21 206 1.6 14.5 0.00 0.00 0.00 85 1009.2
20260505064516 21 59 1.6 11.3 0.00 0.00 0.00 85 1009.4
20260505063010 21 209 1.6 12.9 0.00 0.00 0.00 84 1009.6
20260505061528 21 304 3.2 16.1 0.00 0.00 0.00 84 1009.7
20260505060019 21 96 1.6 6.4 0.00 0.00 0.00 84 1009.8
20260505054539 21 31 1.6 8.0 0.00 0.00 0.00 84 1009.7
20260505053005 21 19 1.6 8.0 0.00 0.00 0.00 84 1009.7
20260505051528 21 306 1.6 14.5 0.00 0.00 0.00 84 1009.7
20260505041512 22 133 1.6 14.5 0.00 0.00 0.00 82 1009.5
20260505040016 22 151 1.6 9.7 0.00 0.00 0.00 82 1009.5
20260505034519 22 148 1.6 8.0 0.00 0.00 0.00 81 1009.5
20260505033024 22 214 1.6 12.9 0.00 0.00 0.00 81 1009.4
20260505031540 22 111 1.6 9.7 0.00 0.00 0.00 80 1009.4
20260505030014 22 195 0.0 8.0 0.00 0.00 0.00 79 1009.5
20260505024531 22 342 1.6 9.7 0.00 0.00 0.00 78 1009.4
20260505023027 23 145 0.0 8.0 0.00 0.00 0.00 77 1009.3
20260505021527 23 216 0.0 8.0 0.00 0.00 0.00 76 1009.3
20260505020031 23 315 1.6 6.4 0.00 0.00 0.00 74 1009.2
20260505014523 23 262 0.0 6.4 0.00 0.00 0.00 74 1009.2
20260505013004 23 123 0.0 3.2 0.00 0.00 0.00 72 1009.3
20260505011504 23 154 0.0 6.4 0.00 0.00 0.00 70 1009.2
20260505010028 24 244 1.6 9.7 0.00 0.00 0.00 1009.2
20260505004524 25 282 0.0 12.9 0.00 0.00 0.00 67 1009.3
20260505003031 25 314 1.6 17.7 0.00 0.00 0.00 67 1009.2
20260505001504 25 258 1.6 12.9 0.00 0.00 0.00 66 1009.0
20260505000009 25 275 3.2 11.3 0.00 0.00 0.00 66 1009.1
20260504234526 26 208 4.8 14.5 0.00 0.00 0.00 65 1009.3
20260504233016 26 86 3.2 12.9 0.00 0.00 0.00 63 1009.5
20260504231522 26 240 3.2 14.5 0.00 0.00 0.00 64 1009.5
20260504230002 27 78 3.2 17.7 0.00 0.00 0.00 60 1009.5
20260504224509 27 173 4.8 17.7 0.00 0.00 0.00 60 1009.8
20260504223015 27 243 3.2 12.9 0.00 0.00 0.00 60 1009.8
20260504221519 27 25 1.6 16.1 0.00 0.00 0.00 62 1009.9
20260504220024 27 208 1.6 14.5 0.00 0.00 0.00 63 1009.9
20260504214505 27 300 1.6 11.3 0.00 0.00 0.00 64 1009.9
20260504213012 27 96 3.2 14.5 0.00 0.00 0.00 64 1010.3
20260504211530 26 103 1.6 8.0 0.00 0.00 0.00 63 1010.6
20260504210024 27 205 1.6 12.9 0.00 0.00 0.00 64 1011.0
20260504204526 26 236 1.6 12.9 0.00 0.00 0.00 68 1011.2
20260504203010 26 86 1.6 11.3 0.00 0.00 0.00 65 1011.4
20260504201516 27 75 3.2 20.9 0.00 0.00 0.00 63 1011.7
20260504200019 27 180 3.2 12.9 0.00 0.00 0.00 63 1011.8
20260504194525 26 230 3.2 20.9 0.00 0.00 0.00 64 1012.3
20260504193010 27 259 3.2 12.9 0.00 0.00 0.00 61 1012.4
20260504191511 26 255 4.8 14.5 0.00 0.00 0.00 68 1012.7
20260504190003 26 257 3.2 14.5 0.00 0.00 0.00 63 1013.0
20260504184504 26 140 4.8 20.9 0.00 0.00 0.00 62 1012.9
20260504183006 26 276 3.2 11.3 0.00 0.00 0.00 66 1013.4
20260504181510 26 99 3.2 12.9 0.00 0.00 0.00 67 1013.9
20260504180028 25 113 3.2 14.5 0.00 0.00 0.00 64 1013.9
20260504174504 24 213 4.8 17.7 0.00 0.00 0.00 66 1014.0
20260504173006 23 202 1.6 17.7 0.00 0.00 0.00 68 1014.4
20260504171510 23 240 4.8 20.9 0.00 0.00 0.00 70 1014.8